Location: Newark
(46.5669°N, 0.8644°E)
Time: 20:53:13
(UTC+00:00)

N. Korean satellite - Visible Passes

Search period start: 25 January 2020 00:00
Search period end: 04 February 2020 00:00
Orbit: 454 x 507 km, 97.2° (Epoch: 25 January)

Date Brightness Start Highest point End Pass type
(mag) Time Alt. Az. Time Alt. Az. Time Alt. Az.
25 Jan 6.8 05:44:23 10° NNE 05:47:57 70° ESE 05:51:33 10° S visible
25 Jan 9.8 17:57:21 10° SW 17:59:20 15° W 18:01:19 10° NW visible
26 Jan 8.3 05:19:06 10° NNE 05:22:23 33° E 05:25:42 10° SSE visible
26 Jan 8.9 17:30:39 10° SSW 17:33:38 28° W 17:36:40 10° NW visible
27 Jan 9.5 04:54:15 10° NE 04:56:45 17° E 04:59:14 10° SE visible
27 Jan 7.2 06:26:57 10° N 06:30:14 34° WNW 06:33:32 10° SW visible
28 Jan 6.4 06:01:13 10° N 06:04:49 71° WNW 06:08:26 10° SSW visible
29 Jan 7.3 05:35:46 10° NNE 05:39:18 55° E 05:42:53 10° S visible
29 Jan 9.7 17:48:09 10° SW 17:50:35 18° W 17:53:03 10° NW visible
30 Jan 8.8 05:10:35 10° NE 05:13:43 27° E 05:16:52 10° SSE visible
30 Jan 7.7 06:44:06 10° NNW 06:47:00 23° WNW 06:49:54 10° WSW visible
30 Jan 8.4 17:21:45 10° SSW 17:24:56 36° W 17:28:10 10° NNW visible
31 Jan 9.8 04:45:58 10° ENE 04:48:02 14° E 04:50:05 10° SE visible
31 Jan 6.9 06:18:10 10° N 06:21:37 43° WNW 06:25:06 10° SW visible
01 Feb 6.5 05:52:32 10° NNE 05:56:10 90° W 05:59:51 10° SSW visible
01 Feb 10.1 18:06:17 10° WSW 18:07:35 12° W 18:08:53 10° WNW visible
02 Feb 7.9 05:27:08 10° NNE 05:30:38 43° E 05:34:09 10° S visible
02 Feb 9.4 17:39:05 10° SSW 17:41:51 23° W 17:44:40 10° NW visible
03 Feb 9.2 05:02:06 10° NE 05:05:01 22° E 05:07:57 10° SSE visible
03 Feb 7.5 06:35:14 10° N 06:38:24 28° WNW 06:41:34 10° SW visible
